TimeEDT,TemperatureF,Dew PointF,Humidity,Sea Level PressureIn,VisibilityMPH,Wind Direction,Wind SpeedMPH,Gust SpeedMPH,PrecipitationIn,Events,Conditions,WindDirDegrees,DateUTC
12:23 AM,33.8,32.0,93,29.71,1.5,NNW,27.6,42.6,0.00,Snow,Light Snow,330,2011-10-30 04:23:00
12:45 AM,33.8,32.0,93,29.72,2.0,NNW,23.0,32.2,0.00,Snow,Light Snow,340,2011-10-30 04:45:00
12:56 AM,34.0,32.0,92,29.72,2.5,North,19.6,31.1,0.00,Snow,Light Snow,350,2011-10-30 04:56:00
1:18 AM,33.8,32.0,93,29.73,1.8,NNW,17.3,25.3,0.00,Snow,Light Snow,340,2011-10-30 05:18:00
1:34 AM,33.8,32.0,93,29.73,1.2,NNW,16.1,25.3,0.00,Snow,Light Snow,340,2011-10-30 05:34:00
1:56 AM,33.1,32.0,96,29.74,0.8,NNW,15.0,28.8,0.00,Snow,Light Snow,340,2011-10-30 05:56:00
2:23 AM,33.8,32.0,93,29.75,1.2,NNW,16.1,26.5,0.02,Snow,Light Snow,330,2011-10-30 06:23:00
2:49 AM,33.8,32.0,93,29.76,1.5,NNW,21.9,28.8,0.02,Snow,Light Snow,330,2011-10-30 06:49:00
2:56 AM,34.0,32.0,92,29.76,1.5,NW,23.0,31.1,0.02,Snow,Light Snow,320,2011-10-30 06:56:00
3:06 AM,33.8,32.0,93,29.76,2.0,NNW,17.3,28.8,0.00,Snow,Light Snow,330,2011-10-30 07:06:00
3:21 AM,33.8,32.0,93,29.77,4.0,NNW,17.3,26.5,0.00,Snow,Light Snow,330,2011-10-30 07:21:00
3:49 AM,33.8,30.2,87,29.77,10.0,NNW,23.0,33.4,0.00,,Overcast,330,2011-10-30 07:49:00
3:56 AM,34.0,32.0,92,29.78,10.0,NNW,17.3,32.2,0.00,,Overcast,330,2011-10-30 07:56:00
4:56 AM,35.6,30.2,81,29.80,10.0,NNW,16.1,28.8,N/A,,Partly Cloudy,330,2011-10-30 08:56:00
5:44 AM,35.6,30.2,81,29.83,10.0,NW,16.1,25.3,N/A,,Mostly Cloudy,320,2011-10-30 09:44:00
5:56 AM,35.6,30.2,81,29.84,10.0,NW,16.1,24.2,N/A,,Mostly Cloudy,320,2011-10-30 09:56:00
6:04 AM,35.6,30.2,81,29.85,10.0,NW,18.4,24.2,N/A,,Overcast,320,2011-10-30 10:04:00
6:56 AM,35.6,30.2,81,29.88,10.0,NNW,17.3,24.2,N/A,,Mostly Cloudy,330,2011-10-30 10:56:00
7:11 AM,35.6,30.2,81,29.89,10.0,NNW,13.8,28.8,N/A,,Scattered Clouds,330,2011-10-30 11:11:00
7:56 AM,36.0,28.9,76,29.91,10.0,NNW,15.0,26.5,N/A,,Clear,330,2011-10-30 11:56:00
8:56 AM,37.0,30.0,76,29.97,10.0,NNW,20.7,28.8,N/A,,Clear,330,2011-10-30 12:56:00
9:56 AM,39.2,30.2,70,30.01,10.0,NW,17.3,21.9,N/A,,Clear,320,2011-10-30 13:56:00
10:56 AM,41.0,30.9,67,30.04,10.0,NW,12.7,26.5,N/A,,Partly Cloudy,310,2011-10-30 14:56:00
11:56 AM,44.6,32.0,61,30.07,10.0,NNW,16.1,26.5,N/A,,Mostly Cloudy,330,2011-10-30 15:56:00
12:56 PM,46.0,32.0,58,30.08,10.0,NNW,17.3,25.3,N/A,,Scattered Clouds,330,2011-10-30 16:56:00
1:56 PM,46.0,30.0,54,30.09,10.0,North,19.6,27.6,N/A,,Scattered Clouds,350,2011-10-30 17:56:00
2:56 PM,46.9,30.0,52,30.12,10.0,NW,15.0,26.5,N/A,,Partly Cloudy,320,2011-10-30 18:56:00
3:56 PM,46.9,26.1,44,30.14,10.0,NNW,12.7,23.0,N/A,,Clear,330,2011-10-30 19:56:00
4:56 PM,46.4,26.6,46,30.16,10.0,NNW,10.4,20.7,N/A,,Clear,330,2011-10-30 20:56:00
5:56 PM,42.1,27.0,55,30.20,10.0,WNW,8.1,-,N/A,,Clear,300,2011-10-30 21:56:00
6:56 PM,39.9,28.9,65,30.23,10.0,West,4.6,-,N/A,,Clear,270,2011-10-30 22:56:00
7:56 PM,39.0,30.0,70,30.25,10.0,West,6.9,-,N/A,,Clear,270,2011-10-30 23:56:00
8:56 PM,37.9,30.0,73,30.27,10.0,WNW,6.9,-,N/A,,Clear,300,2011-10-31 00:56:00
9:56 PM,37.0,28.9,73,30.29,10.0,NW,5.8,-,N/A,,Clear,320,2011-10-31 01:56:00
10:56 PM,34.0,28.9,82,30.30,10.0,NW,5.8,-,N/A,,Clear,310,2011-10-31 02:56:00
11:56 PM,33.1,30.0,89,30.31,10.0,NNE,4.6,-,N/A,,Clear,30,2011-10-31 03:56:00